Wind_Speed
37 37 36 34 32 30 30 28 27 27 27 25 26 26 23 25 27 30 27 29 25 34 34 35 38 35 34 37 38 36 34 30 27 24 28 31 32 31 25 22 16 20 13 14 3
35 35 35 33 31 30 30 29 29 28 27 26 28 29 26 25 26 27 29 29 26 27 30 36 38 38 36 37 40 42 38 36 33 30 28 35 33 33 32 27 23 23 22 11 8
32 32 33 32 31 30 31 31 30 30 29 32 30 30 29 28 29 27 27 29 28 26 30 28 38 34 37 37 41 44 41 40 37 35 35 37 38 38 35 35 29 31 28 25 20
29 30 30 31 32 32 31 31 31 31 30 30 29 31 28 31 30 30 31 31 31 30 31 31 31 36 39 42 39 42 40 43 42 40 39 39 39 40 40 39 39 35 33 28 26
30 29 29 29 29 29 30 30 31 31 30 31 32 33 31 32 34 33 32 32 32 34 34 35 35 34 38 38 42 42 43 44 42 43 43 46 42 41 40 40 45 42 40 35 31
28 30 30 30 30 29 28 28 29 27 28 29 30 31 33 36 34 36 38 39 39 38 39 39 39 40 39 41 42 42 40 42 45 47 47 48 50 48 38 43 47 47 44 44 40
18 19 19 19 19 20 20 18 18 18 19 21 22 24 25 29 31 33 34 34 35 37 40 43 44 45 45 46 45 45 44 43 44 46 51 48 53 50 43 43 49 49 49 47 46
17 17 17 17 17 18 18 17 16 16 17 18 20 23 25 26 27 28 28 31 32 32 35 38 39 42 44 44 48 51 53 51 49 49 51 60 55 49 50 49 49 51 51 51 50
16 16 15 15 15 14 14 14 15 15 15 15 17 19 20 21 22 23 24 25 26 26 29 30 32 36 40 44 45 49 53 56 56 56 57 58 60 59 56 58 57 55 52 54 54
15 15 14 15 15 14 14 14 15 15 15 14 13 14 14 15 16 16 17 18 19 22 25 28 31 33 36 39 43 46 51 53 57 57 62 63 58 58 59 64 61 62 60 59 58
16 15 15 15 15 14 14 14 15 16 17 17 17 17 17 17 18 19 21 23 25 28 30 31 34 37 40 43 46 49 52 54 53 56 60 65 67 64 64 61 68 64 65 64 64
14 13 13 13 13 13 12 13 13 14 15 17 19 20 22 23 23 22 22 23 25 27 29 31 34 37 40 43 46 50 54 57 60 60 62 65 69 70 69 66 65 70 66 67 66
13 12 12 11 12 12 12 12 12 14 15 17 18 18 19 19 19 19 21 23 23 26 30 32 34 36 38 41 44 48 55 60 62 64 67 72 70 70 69 74 72 71 71 67 70
13 11 10 10 10 9 9 8 10 11 12 15 17 18 19 20 21 22 22 23 24 26 28 29 31 33 36 39 44 47 52 56 62 66 72 73 76 72 72 73 78 78 78 74 70
13 12 12 11 11 9 7 6 6 5 6 11 13 15 18 20 21 24 22 21 22 24 25 26 28 30 34 38 42 43 46 50 54 60 68 71 78 76 76 75 74 80 81 79 77
15 14 13 13 12 10 8 7 6 6 8 9 9 11 14 14 18 18 17 17 17 18 22 25 29 32 35 39 44 46 48 47 44 43 54 57 61 76 77 75 70 74 80 80 78
16 16 15 14 13 12 10 9 8 7 8 8 8 8 10 10 12 11 14 16 16 14 16 25 29 33 35 35 40 47 48 43 25 20 24 24 39 48 50 52 59 65 72 72 66
19 18 16 15 14 14 13 11 10 9 10 9 8 8 9 8 11 12 13 13 15 17 15 21 28 30 34 35 37 40 41 33 28 22 16 17 13 17 24 29 34 51 63 68 62
23 22 21 19 18 16 15 13 12 12 11 11 10 9 10 10 13 12 13 13 16 16 17 17 28 31 32 34 34 36 31 25 17 22 21 15 8 15 21 24 33 34 51 59 59
25 24 23 22 20 18 16 15 14 14 13 13 12 11 13 15 15 14 14 14 16 17 17 17 22 28 33 32 34 34 26 22 22 17 14 16 14 21 27 24 26 37 39 49 59
27 25 24 24 22 20 18 16 14 13 13 12 12 12 13 15 16 16 15 13 15 15 14 18 20 28 30 29 29 29 27 24 21 23 25 11 10 23 22 23 34 29 35 44 56
30 27 25 24 23 22 20 17 15 13 12 11 11 13 14 15 17 19 18 17 16 14 13 16 18 24 27 28 27 26 25 22 21 21 26 28 25 29 23 23 38 30 20 36 52
34 32 30 27 26 25 23 21 18 15 12 9 9 10 13 16 18 19 20 21 19 20 16 17 18 19 26 27 25 25 26 24 21 23 22 26 26 32 30 26 38 50 31 33 35
38 36 34 32 30 28 27 25 22 19 16 14 12 12 14 16 19 20 20 21 22 22 23 19 18 19 23 26 23 26 28 31 33 27 27 26 30 37 33 33 32 37 40 38 35
42 39 36 35 34 32 30 27 26 24 22 18 15 14 16 18 19 20 21 23 22 22 24 23 21 20 24 23 23 23 25 27 31 34 37 26 35 38 38 35 36 44 41 41 37
45 42 39 37 36 35 33 30 29 26 24 22 20 18 18 18 21 23 21 24 25 24 24 25 23 20 23 24 26 25 25 23 25 26 32 35 32 32 34 37 36 40 46 48 48
49 46 44 41 39 37 35 35 32 29 27 26 23 22 22 21 21 24 25 26 26 26 26 26 26 23 25 24 25 26 27 25 26 26 27 29 34 36 36 38 39 40 42 47 48
Wind_Direction
221 222 223 226 227 227 231 233 235 235 235 235 238 244 239 237 240 236 240 239 241 237 239 239 236 237 235 235 237 234 236 238 239 221 209 230 239 252 255 247 253 279 244 265 289
219 220 222 223 225 225 229 230 231 231 230 232 235 240 243 244 242 235 239 242 241 237 243 242 238 237 236 239 235 238 233 233 235 232 224 222 233 242 253 259 247 262 266 251 240
217 220 222 222 223 225 226 229 231 232 231 230 232 233 235 240 243 244 247 250 246 243 246 247 241 239 241 242 243 237 237 235 232 233 235 217 227 236 244 249 240 261 270 274 256
217 220 224 226 226 224 226 229 232 233 233 235 237 240 234 236 241 243 242 244 249 245 245 246 246 241 246 248 250 251 247 239 235 233 231 233 233 238 239 247 249 252 261 265 273
219 222 225 227 230 233 233 234 235 236 240 240 235 239 243 242 241 243 244 244 247 247 246 245 250 245 243 244 247 255 248 245 241 239 234 232 233 236 239 240 248 250 256 263 267
218 224 227 230 232 235 238 240 243 243 245 248 249 249 246 246 250 251 246 249 248 247 248 248 247 247 248 247 248 250 250 245 248 247 240 234 231 235 233 239 244 250 253 257 262
192 200 208 214 218 224 228 227 227 228 230 235 239 244 244 244 245 247 250 250 251 254 254 254 254 251 248 248 251 251 251 246 245 245 241 238 231 232 232 234 242 246 253 254 258
188 192 197 201 205 206 209 211 214 220 228 234 239 243 249 249 251 251 251 253 255 256 256 254 254 256 259 256 252 250 251 249 245 244 240 241 234 237 237 232 235 243 245 251 255
178 181 185 190 195 199 204 211 215 224 227 234 241 243 245 248 249 251 252 253 254 256 257 259 260 260 258 258 259 257 254 253 249 245 243 240 238 234 235 240 237 235 238 244 251
183 185 187 191 196 201 208 214 220 225 228 235 239 239 242 242 241 243 246 251 257 256 260 262 263 264 265 266 265 262 261 259 257 249 248 244 243 239 234 235 239 239 240 239 241
192 192 195 200 202 206 213 219 223 229 234 238 239 242 245 246 248 253 260 266 269 271 272 271 271 270 271 270 269 268 265 261 260 261 254 250 244 240 239 233 236 237 239 241 242
198 198 199 201 203 207 214 221 224 227 232 237 239 242 244 248 253 258 261 263 263 265 269 272 277 277 277 277 276 275 272 267 263 260 259 256 246 244 239 238 233 235 234 238 242
203 203 204 206 209 210 214 218 223 226 227 229 230 234 240 241 244 249 254 260 264 267 268 269 273 276 278 280 281 281 277 272 266 259 258 256 253 248 242 239 235 232 233 232 238
207 208 209 209 210 210 212 217 225 227 235 242 245 243 247 251 253 254 254 255 258 261 265 271 276 278 281 286 286 284 282 279 274 265 257 254 253 247 245 239 236 235 233 232 230
205 204 205 207 205 206 212 224 228 234 248 241 252 259 256 252 251 249 252 256 262 267 273 282 285 290 295 299 302 303 299 293 281 270 260 253 251 246 242 240 235 235 236 234 230
207 209 212 213 213 213 214 231 234 241 255 258 263 263 259 256 259 260 263 272 275 287 297 301 302 305 310 319 324 322 320 313 297 284 266 261 256 242 243 239 236 233 235 236 233
215 219 218 218 220 223 228 236 239 251 261 264 274 275 272 267 264 277 287 286 286 293 310 307 309 313 319 331 332 329 325 319 312 308 291 284 257 256 259 258 247 236 233 233 231
218 221 224 225 227 232 233 238 242 254 267 276 286 289 294 300 298 295 290 290 289 294 312 314 311 321 322 328 332 329 329 320 318 301 278 323 322 270 270 258 257 243 236 232 227
224 225 227 233 238 239 240 242 246 255 265 282 290 294 298 306 310 311 309 303 296 298 309 321 312 319 326 331 336 333 333 317 316 324 291 314 264 257 252 261 250 242 240 235 225
224 227 231 233 236 239 239 241 246 252 259 274 292 307 314 313 316 319 317 312 306 308 313 318 318 321 325 336 336 333 331 310 285 314 330 299 279 251 245 236 262 245 241 235 225
224 224 229 232 232 231 232 234 241 250 259 269 281 293 309 314 314 317 321 320 313 313 317 315 322 319 324 334 337 330 322 321 278 272 288 311 288 265 253 256 234 234 243 234 229
230 227 227 231 231 228 229 236 245 254 262 270 277 285 296 305 313 317 316 322 319 315 318 313 321 317 321 329 337 331 315 306 293 287 274 271 282 285 264 258 249 247 213 230 232
231 232 229 230 230 230 233 237 239 246 258 266 283 296 307 310 306 310 317 318 320 315 317 315 318 323 320 326 333 328 315 312 301 282 277 275 272 277 273 270 244 252 236 229 230
231 233 235 233 234 236 239 240 242 245 250 259 272 294 309 311 309 303 310 318 319 320 318 317 318 323 318 323 325 322 317 313 315 300 284 280 270 265 277 275 268 280 278 265 261
230 232 234 238 238 241 239 238 242 249 252 258 267 279 298 308 311 309 304 308 313 315 315 315 317 317 315 318 318 315 317 317 305 299 300 298 285 276 277 276 271 269 279 280 281
230 233 235 238 240 240 241 240 240 244 250 258 264 271 282 293 305 304 307 302 304 309 309 309 311 312 307 315 317 319 320 317 315 308 299 294 292 291 285 280 277 269 274 280 275
231 233 234 237 241 242 242 241 241 243 248 254 262 269 274 284 295 301 302 300 301 298 301 305 307 312 306 311 316 320 319 317 313 315 312 302 296 292 287 286 285 282 276 273 279
Height
5778 5784 5788 5791 5795 5798 5802 5803 5807 5811 5814 5816 5818 5819 5823 5825 5829 5831 5833 5836 5838 5842 5844 5847 5851 5853 5855 5858 5862 5864 5868 5873 5876 5880 5883 5879 5877 5875 5878 5882 5882 5884 5884 5886 5888
5774 5779 5783 5786 5791 5793 5797 5799 5803 5806 5808 5810 5814 5815 5817 5820 5823 5824 5827 5832 5835 5837 5839 5841 5846 5847 5849 5851 5855 5857 5863 5866 5870 5874 5876 5877 5875 5873 5874 5875 5880 5882 5883 5884 5886
5769 5774 5779 5783 5785 5789 5793 5796 5798 5801 5802 5807 5808 5810 5812 5815 5818 5818 5822 5825 5828 5830 5834 5836 5839 5841 5844 5846 5847 5850 5857 5860 5864 5867 5870 5872 5872 5869 5871 5871 5873 5878 5880 5882 5882
5766 5770 5774 5777 5781 5785 5788 5791 5793 5796 5798 5800 5801 5805 5805 5810 5813 5811 5814 5818 5821 5823 5827 5830 5832 5834 5837 5839 5840 5844 5850 5852 5858 5859 5862 5865 5867 5868 5867 5870 5871 5874 5877 5879 5881
5762 5767 5770 5774 5777 5779 5782 5785 5787 5790 5791 5794 5797 5800 5800 5804 5805 5806 5808 5812 5814 5816 5819 5822 5824 5826 5829 5831 5833 5834 5841 5844 5849 5852 5854 5856 5860 5859 5864 5866 5864 5867 5872 5876 5878
5759 5762 5766 5769 5772 5775 5778 5780 5783 5784 5786 5788 5790 5793 5795 5797 5798 5799 5803 5804 5806 5808 5811 5813 5816 5818 5821 5822 5823 5827 5832 5836 5841 5843 5843 5846 5850 5852 5862 5859 5857 5859 5864 5870 5873
5756 5759 5762 5765 5767 5770 5772 5775 5778 5780 5782 5784 5785 5787 5789 5792 5792 5795 5797 5798 5799 5800 5801 5804 5806 5809 5813 5813 5815 5818 5820 5825 5830 5830 5833 5834 5842 5849 5854 5851 5850 5853 5855 5860 5865
5754 5757 5759 5762 5765 5767 5769 5771 5773 5776 5778 5780 5782 5783 5785 5786 5786 5788 5790 5791 5792 5793 5795 5797 5798 5799 5800 5803 5805 5808 5808 5813 5817 5816 5817 5819 5833 5839 5841 5839 5841 5842 5848 5850 5855
5753 5755 5757 5759 5762 5763 5766 5768 5770 5772 5774 5775 5777 5778 5779 5780 5781 5782 5783 5785 5786 5787 5788 5788 5789 5790 5791 5793 5795 5796 5797 5798 5803 5804 5805 5807 5818 5824 5829 5828 5834 5832 5835 5842 5844
5751 5753 5756 5757 5759 5760 5763 5765 5766 5768 5770 5771 5772 5774 5775 5776 5777 5778 5779 5780 5780 5781 5782 5783 5783 5783 5783 5783 5784 5786 5785 5787 5785 5793 5792 5797 5805 5811 5816 5819 5822 5827 5826 5826 5833
5750 5752 5754 5755 5756 5758 5760 5761 5764 5765 5766 5767 5769 5769 5770 5771 5772 5774 5773 5774 5775 5773 5774 5774 5774 5774 5774 5774 5774 5774 5774 5772 5775 5774 5775 5781 5787 5797 5800 5807 5811 5814 5816 5817 5819
5748 5749 5750 5752 5754 5755 5757 5758 5759 5762 5762 5763 5764 5765 5766 5767 5768 5768 5768 5769 5769 5768 5766 5767 5766 5766 5765 5765 5764 5762 5758 5758 5759 5763 5761 5758 5771 5777 5788 5793 5798 5801 5806 5809 5809
5744 5745 5747 5748 5750 5752 5753 5754 5755 5756 5758 5759 5759 5760 5760 5762 5762 5763 5763 5762 5762 5761 5761 5761 5761 5759 5758 5756 5753 5749 5741 5739 5742 5745 5741 5739 5753 5760 5772 5775 5780 5787 5793 5797 5797
5741 5742 5744 5745 5747 5747 5748 5749 5750 5751 5752 5753 5753 5753 5754 5754 5756 5755 5756 5757 5756 5755 5754 5754 5752 5751 5749 5745 5741 5737 5729 5724 5721 5723 5719 5727 5726 5741 5747 5755 5761 5768 5774 5780 5785
5738 5739 5741 5743 5744 5744 5746 5746 5746 5747 5748 5749 5748 5748 5748 5750 5750 5749 5750 5750 5749 5747 5747 5745 5744 5743 5739 5734 5728 5723 5715 5707 5702 5698 5697 5708 5702 5722 5722 5731 5743 5747 5750 5757 5762
5734 5736 5738 5739 5740 5741 5741 5742 5743 5745 5744 5744 5744 5743 5743 5744 5743 5744 5744 5744 5742 5738 5735 5734 5733 5731 5726 5720 5712 5706 5699 5689 5683 5681 5682 5684 5685 5698 5700 5709 5718 5727 5725 5729 5738
5731 5733 5734 5735 5737 5737 5738 5739 5741 5740 5741 5741 5740 5739 5738 5737 5737 5737 5736 5735 5735 5734 5730 5727 5724 5721 5717 5715 5704 5697 5687 5678 5675 5671 5670 5669 5671 5679 5681 5686 5690 5700 5706 5710 5715
5726 5728 5730 5731 5732 5733 5734 5736 5736 5736 5736 5736 5736 5734 5733 5733 5732 5732 5731 5730 5728 5726 5726 5723 5719 5716 5711 5708 5702 5693 5685 5675 5670 5670 5668 5669 5669 5673 5671 5675 5674 5681 5682 5691 5701
5720 5722 5724 5725 5727 5728 5730 5731 5731 5732 5733 5732 5732 5731 5729 5729 5728 5727 5726 5725 5723 5722 5721 5719 5712 5709 5707 5701 5696 5688 5681 5676 5672 5669 5667 5668 5667 5667 5667 5667 5668 5668 5674 5684 5692
5713 5716 5718 5719 5721 5723 5725 5727 5727 5728 5728 5728 5727 5726 5725 5723 5722 5722 5721 5720 5718 5717 5715 5714 5709 5705 5700 5697 5689 5683 5678 5673 5671 5669 5667 5666 5664 5661 5664 5666 5668 5667 5669 5674 5684
5706 5709 5712 5714 5715 5718 5720 5721 5722 5723 5723 5723 5722 5722 5721 5719 5718 5717 5717 5716 5713 5712 5710 5707 5705 5700 5696 5693 5688 5680 5673 5669 5668 5668 5665 5664 5662 5657 5658 5660 5657 5658 5659 5664 5671
5698 5702 5704 5707 5710 5711 5714 5716 5717 5718 5718 5718 5718 5717 5717 5716 5713 5712 5712 5710 5709 5707 5706 5702 5700 5695 5692 5687 5683 5677 5671 5667 5663 5663 5662 5661 5660 5651 5653 5655 5653 5653 5648 5654 5660
5690 5694 5697 5700 5702 5705 5707 5709 5711 5712 5713 5714 5714 5713 5712 5711 5710 5707 5706 5705 5704 5702 5701 5697 5694 5691 5686 5683 5678 5673 5666 5663 5660 5656 5657 5655 5656 5646 5649 5651 5649 5644 5645 5651 5654
5681 5685 5689 5692 5695 5698 5700 5702 5704 5706 5707 5708 5708 5707 5707 5706 5704 5703 5700 5699 5698 5696 5694 5693 5689 5686 5682 5677 5673 5668 5662 5657 5653 5651 5649 5651 5647 5643 5644 5645 5644 5641 5640 5642 5640
5670 5675 5680 5683 5687 5690 5693 5696 5697 5699 5700 5702 5702 5702 5701 5700 5699 5697 5696 5694 5692 5691 5689 5688 5685 5681 5675 5672 5668 5664 5661 5656 5650 5646 5640 5647 5640 5637 5639 5639 5638 5635 5633 5633 5634
5659 5665 5671 5675 5678 5681 5685 5688 5690 5692 5694 5695 5696 5696 5695 5694 5694 5692 5690 5689 5686 5685 5684 5682 5679 5677 5671 5666 5661 5659 5655 5652 5647 5644 5639 5635 5633 5630 5628 5628 5629 5628 5624 5622 5622
5647 5654 5659 5664 5668 5673 5676 5679 5682 5684 5685 5687 5688 5688 5688 5688 5687 5686 5685 5683 5681 5680 5678 5675 5672 5670 5665 5661 5656 5653 5649 5646 5641 5638 5635 5629 5626 5624 5623 5620 5618 5617 5618 5616 5612